[[{"header":{"parameterUnit":"m.s-1","parameterCategory":1,"la1":30.2991,"la2":30.254,"lo1":-89.0895,"lo2":-89.0444,"dy":0.0017,"dx":0.0017,"nx":28,"ny":28,"refTime":"2024-04-15T21:00:00:Z","depth":0,"parameterNumber":2,"parameterNumberName":"U-component_of_WINDS"},"data":[0,0,0,0,0,0,0,0,0,0,0,0,0,0,0,0,0,0,0,0,0,0,0,0,0,0,0,0,0,0,0,0,0,0,0,0,0,0,0,0,0,0,0,0,0,0,0,0,0,0,0,0,0,0,0,0,0,0,-1.4183,-1.4183,0,-1.4168,-1.4168,-1.4167,-1.4143,-1.4143,-1.4142,-1.4142,-1.4125,-1.4125,-1.4125,0,0,0,0,0,0,0,0,0,0,0,0,0,-1.4191,-1.4191,-1.4183,-1.4183,-1.4183,-1.4168,-1.4168,-1.4167,-1.4143,-1.4143,-1.4142,-1.4142,-1.4125,-1.4125,-1.4125,0,0,0,0,0,0,0,0,0,0,0,0,0,-1.4183,-1.4191,-1.4183,-1.4169,-1.4167,-1.4168,-1.4168,-1.4167,-1.4143,-1.4143,-1.4142,-1.4141,-1.4125,-1.4125,-1.4125,-1.4138,0,0,-1.4125,-1.4125,0,0,0,0,0,0,0,0,-1.4183,-1.4182,-1.4171,-1.417,-1.4168,-1.4157,-1.4164,-1.4157,-1.4143,-1.4152,-1.4142,-1.4141,-1.4136,-1.4135,-1.4134,-1.4137,-1.4136,-1.4125,-1.4125,-1.4125,-1.4125,0,0,0,0,0,0,0,-1.4184,-1.4183,-1.4177,-1.4171,-1.4169,-1.4163,-1.4161,-1.4163,-1.4148,-1.4151,-1.415,-1.4148,-1.4135,-1.4134,-1.4133,-1.4136,-1.4125,-1.4125,-1.4125,-1.4125,-1.415,-1.4151,0,0,0,0,0,0,-1.4187,-1.4184,-1.4177,-1.4177,-1.4174,-1.4163,-1.4161,-1.4161,-1.4148,-1.4145,-1.4149,-1.4147,-1.4134,-1.4133,-1.4132,-1.4147,-1.4125,-1.4125,-1.4125,-1.4149,-1.415,-1.4151,0,0,0,0,0,0,-1.4187,-1.4186,-1.4178,-1.418,-1.4178,-1.4164,-1.4164,-1.4161,-1.416,-1.4146,-1.4143,-1.415,-1.4133,-1.4132,-1.4137,-1.4146,-1.4125,-1.4125,-1.4149,-1.415,-1.4151,-1.4176,0,0,0,0,0,0,-1.4187,-1.4187,-1.4191,-1.418,-1.4178,-1.4183,-1.4164,-1.4161,-1.416,-1.4157,-1.4146,-1.4144,-1.4133,-1.4137,-1.4137,-1.4145,-1.4124,-1.4148,-1.4149,-1.415,-1.4174,-1.4178,-1.4181,0,0,0,0,0,-1.4188,-1.4198,-1.4192,-1.4191,-1.4184,-1.4184,-1.4183,-1.417,-1.4161,-1.4165,-1.4157,-1.4144,-1.4145,-1.4138,-1.4137,-1.4146,-1.4147,-1.4149,-1.415,-1.4173,-1.4177,-1.4181,0,0,0,0,0,0,-1.4211,-1.4197,-1.4189,-1.4196,-1.4192,-1.4179,-1.4185,-1.4175,-1.4172,-1.417,-1.4154,-1.4152,-1.4158,-1.4153,-1.4145,-1.4158,-1.4144,-1.4146,-1.4161,-1.4165,-1.4169,-1.4169,-1.4124,0,0,0,0,0,-1.4217,-1.4218,-1.4206,-1.4214,-1.4212,-1.4199,-1.4198,-1.4189,-1.4183,-1.4181,-1.4172,-1.4167,-1.4166,-1.4165,-1.4164,-1.4174,-1.4171,-1.4179,-1.4183,-1.4185,-1.4187,-1.4192,-1.4196,-1.4156,-1.4156,-1.4156,0,0,-1.4229,-1.4222,-1.4223,-1.4218,-1.4213,-1.4215,-1.4197,-1.4199,-1.42,-1.4181,-1.4185,-1.4179,-1.4171,-1.4179,-1.4182,-1.4174,-1.4197,-1.4188,-1.419,-1.419,-1.4194,-1.4198,-1.4201,-1.4157,-1.4157,-1.4157,0,0,-1.4252,-1.4247,-1.4253,-1.4249,-1.4242,-1.4233,-1.4235,-1.4225,-1.422,-1.4224,-1.421,-1.4211,-1.4209,-1.4205,-1.4202,-1.4226,-1.4214,-1.4226,-1.4242,-1.4248,-1.4251,-1.4253,-1.4262,-1.4265,-1.4227,-1.4227,-1.4227,0,-1.4268,-1.427,-1.4257,-1.4261,-1.4259,-1.4242,-1.4249,-1.4245,-1.4238,-1.4237,-1.4229,-1.4228,-1.4222,-1.4228,-1.4234,-1.4233,-1.4234,-1.4226,-1.4251,-1.4254,-1.4256,-1.4264,-1.4267,-1.4229,-1.4229,-1.4228,-1.4228,0,-1.429,-1.4292,-1.4298,-1.4292,-1.4291,-1.4296,-1.4284,-1.4284,-1.4276,-1.4268,-1.4273,-1.4265,-1.4262,-1.4263,-1.4254,-1.4269,-1.4264,-1.4254,-1.424,-1.4262,-1.4268,-1.4271,-1.4231,-1.423,-1.423,-1.4229,0,0,-1.4326,-1.4314,-1.4316,-1.4314,-1.4305,-1.4306,-1.4311,-1.4308,-1.4309,-1.4305,-1.4308,-1.4308,-1.4299,-1.4297,-1.4288,-1.4292,-1.4312,-1.4282,-1.4281,-1.4287,-1.4327,-1.4334,-1.4338,-1.4304,-1.4305,-1.4305,-1.4327,0,-1.4347,-1.4354,-1.4343,-1.4353,-1.4354,-1.4339,-1.4343,-1.4338,-1.4332,-1.4332,-1.4325,-1.4326,-1.4313,-1.4312,-1.4316,-1.4308,-1.4319,-1.4307,-1.4307,-1.4307,-1.4309,-1.4341,-1.4349,-1.437,-1.433,-1.4331,-1.4331,0,-1.4372,-1.437,-1.438,-1.4372,-1.4372,-1.4376,-1.4373,-1.4374,-1.4368,-1.4363,-1.4361,-1.4351,-1.4355,-1.4342,-1.4347,-1.4339,-1.4339,-1.4335,-1.4336,-1.4334,-1.432,-1.4341,-1.4376,-1.438,-1.4335,-1.4335,-1.4334,0,-1.4398,-1.4397,-1.4403,-1.4401,-1.4392,-1.4395,-1.4391,-1.4385,-1.4385,-1.4383,-1.4382,-1.438,-1.4379,-1.4378,-1.4368,-1.4359,-1.4374,-1.436,-1.437,-1.437,-1.4373,-1.4373,-1.4409,-1.4374,-1.4374,-1.4374,-1.4374,0,-1.4422,-1.4429,-1.4414,-1.4418,-1.4425,-1.4413,-1.442,-1.4415,-1.441,-1.4412,-1.4399,-1.4402,-1.4388,-1.4389,-1.4381,-1.4387,-1.4386,-1.4382,-1.438,-1.4383,-1.4384,-1.4382,-1.438,-1.4375,-1.4375,-1.4374,-1.4374,0,-1.4451,-1.4442,-1.4447,-1.4438,-1.4436,-1.4442,-1.4434,-1.4437,-1.4431,-1.4434,-1.4434,-1.4423,-1.4424,-1.4414,-1.4412,-1.4407,-1.4416,-1.4411,-1.4418,-1.4416,-1.4427,-1.4426,-1.4462,-1.4467,-1.4429,-1.443,-1.443,0,-1.4467,-1.4472,-1.4464,-1.4465,-1.4462,-1.4463,-1.4463,-1.4451,-1.4451,-1.4447,-1.445,-1.445,-1.4449,-1.4451,-1.4443,-1.4442,-1.4437,-1.445,-1.4437,-1.444,-1.4437,-1.4437,-1.4437,-1.4453,-1.4453,-1.4453,-1.4454,0,-1.4496,-1.4492,-1.4492,-1.4491,-1.4491,-1.4489,-1.4487,-1.4488,-1.4476,-1.4477,-1.4477,-1.4477,-1.4476,-1.4476,-1.4474,-1.447,-1.446,-1.4458,-1.446,-1.4463,-1.4467,-1.4465,-1.4425,-1.4457,-1.4457,-1.4456,-1.4456,-1.4456,-1.4519,-1.4523,-1.4518,-1.4519,-1.4516,-1.4514,-1.4517,-1.4511,-1.4511,-1.451,-1.4503,-1.4505,-1.4501,-1.4497,-1.4494,-1.4495,-1.4489,-1.4492,-1.4493,-1.4494,-1.4496,-1.4467,-1.4495,-1.4495,-1.4495,-1.4495,-1.4495,0,-1.4548,-1.4544,-1.4545,-1.4542,-1.4543,-1.4534,-1.4531,-1.4533,-1.4535,-1.4531,-1.4531,-1.4532,-1.4533,-1.4525,-1.4525,-1.4527,-1.4523,-1.4528,-1.4527,-1.4526,-1.4502,-1.45,-1.4531,-1.4531,-1.4531,-1.4531,-1.4531,-1.4531,-1.4563,-1.4569,-1.4564,-1.4568,-1.4565,-1.4567,-1.4566,-1.4564,-1.4562,-1.4564,-1.4564,-1.456,-1.4555,-1.4554,-1.4554,-1.4552,-1.4552,-1.4558,-1.4555,-1.4531,-1.4528,-1.4525,-1.4523,-1.4559,-1.4559,-1.4579,-1.4579,-1.4579]},{"header":{"parameterUnit":"m.s-1","parameterCategory":1,"la1":30.2991,"la2":30.254,"lo1":-89.0895,"lo2":-89.0444,"dy":0.0017,"dx":0.0017,"nx":28,"ny":28,"refTime":"2024-04-15T21:00:00:Z","depth":0,"parameterNumber":3,"parameterNumberName":"V-component_of_WINDS"},"data":[0,0,0,0,0,0,0,0,0,0,0,0,0,0,0,0,0,0,0,0,0,0,0,0,0,0,0,0,0,0,0,0,0,0,0,0,0,0,0,0,0,0,0,0,0,0,0,0,0,0,0,0,0,0,0,0,0,0,3.98,3.9799,0,3.9728,3.9727,3.9726,3.9713,3.9714,3.9715,3.9715,3.9635,3.9633,3.963,0,0,0,0,0,0,0,0,0,0,0,0,0,3.9922,3.9919,3.98,3.9799,3.9798,3.9728,3.9727,3.9726,3.9713,3.9714,3.9715,3.9715,3.9636,3.9633,3.963,0,0,0,0,0,0,0,0,0,0,0,0,0,3.9861,3.9919,3.98,3.9783,3.9781,3.9728,3.9727,3.9726,3.9713,3.9714,3.9715,3.9716,3.9637,3.9634,3.963,3.9586,0,0,3.9617,3.9615,0,0,0,0,0,0,0,0,3.9864,3.9856,3.9787,3.9784,3.9782,3.9731,3.9741,3.9679,3.9713,3.9739,3.9715,3.9716,3.9666,3.966,3.9644,3.9583,3.9579,3.9617,3.9614,3.9613,3.9612,0,0,0,0,0,0,0,3.9869,3.9859,3.9771,3.9786,3.9783,3.9778,3.977,3.9729,3.9698,3.9737,3.9735,3.9727,3.9665,3.9648,3.9642,3.9578,3.9617,3.9613,3.9611,3.9609,3.9478,3.9477,0,0,0,0,0,0,3.9876,3.9863,3.9773,3.9769,3.9826,3.9775,3.9767,3.9746,3.9698,3.9692,3.9727,3.9727,3.9654,3.9647,3.9639,3.9586,3.9613,3.9609,3.9607,3.9479,3.9478,3.9477,0,0,0,0,0,0,3.9879,3.9869,3.9776,3.9816,3.9804,3.9772,3.9749,3.9744,3.9727,3.9691,3.9685,3.9715,3.9655,3.9645,3.96,3.9583,3.9607,3.9603,3.9481,3.9479,3.9478,3.9479,0,0,0,0,0,0,3.9883,3.987,3.9854,3.9816,3.9802,3.974,3.9748,3.9742,3.9721,3.9721,3.9679,3.9673,3.9655,3.9606,3.9596,3.9578,3.96,3.9482,3.948,3.9478,3.9481,3.9478,3.9476,0,0,0,0,0,3.9887,3.9856,3.9853,3.9842,3.9782,3.9739,3.9731,3.9713,3.972,3.9703,3.968,3.9674,3.9587,3.9602,3.959,3.9571,3.9483,3.9481,3.9478,3.9482,3.9478,3.9476,0,0,0,0,0,0,3.989,3.985,3.9847,3.9803,3.9775,3.9737,3.9715,3.971,3.9677,3.9678,3.9655,3.9646,3.9602,3.9582,3.9599,3.9527,3.9535,3.953,3.9542,3.9538,3.9536,3.9542,3.9597,0,0,0,0,0,3.9886,3.9857,3.9823,3.9787,3.9773,3.9747,3.9727,3.9716,3.9685,3.9673,3.9646,3.9615,3.9581,3.9558,3.9525,3.9478,3.9468,3.9459,3.9456,3.9454,3.945,3.9425,3.942,3.9469,3.9469,3.9469,0,0,3.9877,3.9851,3.9833,3.9787,3.9764,3.9733,3.9737,3.9703,3.9679,3.9667,3.9624,3.9604,3.9567,3.9522,3.95,3.9503,3.9435,3.9451,3.945,3.9447,3.9422,3.9417,3.9413,3.9468,3.9468,3.9468,0,0,3.9843,3.9821,3.979,3.9767,3.9733,3.9716,3.9709,3.9672,3.9659,3.9616,3.9607,3.9577,3.9518,3.9493,3.9473,3.9432,3.9426,3.9422,3.9409,3.9384,3.938,3.9376,3.9362,3.9357,3.9418,3.9418,3.9418,0,3.9835,3.979,3.9773,3.9741,3.9721,3.9711,3.9678,3.9656,3.9612,3.9597,3.9602,3.953,3.9504,3.9453,3.9444,3.9427,3.9417,3.9426,3.9382,3.9378,3.9375,3.9361,3.9356,3.9418,3.9418,3.9418,3.9418,0,3.9781,3.975,3.9728,3.9689,3.9666,3.9633,3.9611,3.9589,3.958,3.9563,3.9519,3.9489,3.9449,3.9436,3.9426,3.9384,3.9387,3.9387,3.9395,3.937,3.9357,3.9351,3.9417,3.9417,3.9417,3.9418,0,0,3.9746,3.9701,3.9693,3.9675,3.9638,3.9612,3.9579,3.9543,3.9525,3.9495,3.9466,3.9418,3.9419,3.9396,3.9382,3.9361,3.9331,3.9364,3.9363,3.9359,3.9283,3.9283,3.9278,3.9327,3.9326,3.9325,3.9286,0,3.9709,3.9652,3.9637,3.9588,3.9559,3.955,3.9521,3.9494,3.9477,3.9448,3.9428,3.9395,3.9398,3.9384,3.9362,3.934,3.9316,3.9342,3.9299,3.9298,3.9309,3.927,3.927,3.9235,3.9281,3.928,3.9279,0,3.9657,3.9629,3.9578,3.9546,3.9533,3.9508,3.9474,3.9447,3.9417,3.9406,3.9381,3.937,3.9335,3.9345,3.9295,3.9314,3.9295,3.9281,3.928,3.9274,3.9287,3.9264,3.9223,3.9218,3.9271,3.9272,3.9272,0,3.9638,3.9587,3.955,3.9535,3.9497,3.9479,3.9462,3.9433,3.9412,3.9382,3.9369,3.9334,3.9315,3.9288,3.9268,3.9277,3.922,3.9228,3.9209,3.9209,3.9196,3.9197,3.9152,3.9185,3.9185,3.9185,3.9185,0,3.9597,3.9566,3.9541,3.9518,3.9483,3.9466,3.9431,3.9413,3.9388,3.936,3.935,3.9324,3.9299,3.927,3.9254,3.9215,3.9206,3.9196,3.9192,3.9197,3.9198,3.9184,3.9186,3.9183,3.9184,3.9184,3.9184,0,3.9569,3.9551,3.951,3.9478,3.947,3.9445,3.9417,3.9394,3.9377,3.9343,3.9334,3.9307,3.9272,3.925,3.9204,3.9194,3.9151,3.9148,3.9163,3.9161,3.9142,3.9145,3.9086,3.9077,3.9116,3.9116,3.9116,0,3.9544,3.9521,3.9487,3.9469,3.9453,3.9424,3.9404,3.9386,3.9365,3.933,3.9311,3.9276,3.9247,3.9192,3.9167,3.9133,3.9129,3.911,3.9123,3.9129,3.9128,3.913,3.9128,3.9108,3.9108,3.9108,3.9107,0,3.9503,3.9495,3.9468,3.9438,3.9415,3.939,3.9365,3.935,3.9328,3.9305,3.9271,3.9249,3.9204,3.9169,3.9133,3.9114,3.9107,3.9104,3.9098,3.9102,3.9112,3.9107,3.9157,3.9105,3.9105,3.9105,3.9106,3.9106,3.9475,3.9454,3.9428,3.9398,3.9378,3.9355,3.9333,3.9314,3.9286,3.925,3.9241,3.9205,3.9175,3.9127,3.9107,3.9078,3.908,3.907,3.9068,3.9066,3.9066,3.9117,3.9071,3.9071,3.9071,3.9071,3.9071,0,3.9433,3.9417,3.939,3.9356,3.9333,3.9331,3.9303,3.9283,3.9252,3.9226,3.9199,3.916,3.9127,3.91,3.9066,3.9047,3.9043,3.9039,3.904,3.9036,3.9066,3.9075,3.9043,3.9043,3.9043,3.9043,3.9043,3.9043,3.9409,3.9374,3.9364,3.9318,3.9301,3.9268,3.9252,3.9231,3.9211,3.9168,3.9142,3.9126,3.9099,3.9063,3.9032,3.9025,3.9013,3.901,3.9002,3.903,3.9033,3.9036,3.9045,3.9007,3.9007,3.8974,3.8974,3.8974]}]]